Wind_Speed
58 57 54 50 47 46 43 43 42 40 38 36 36 36 34 34 32 31 31 31 31 29 27 28 29 30 32 31 29 28 27 27 28 29 30 31 32 32 32 34 36 38 40 41 43 44 44 44 44 44 44 43 41 39 37 37 38 38 38 38 36 33 29 29 29 28 28 27 26 27 27 28 28 27 26 25 25 25 23 21 19 19 19 21 23
54 53 49 45 43 41 37 35 35 33 32 34 34 33 32 31 30 29 30 30 31 30 28 28 29 30 30 29 29 28 27 28 28 29 30 32 31 32 32 33 35 39 42 42 42 43 45 45 45 44 43 42 41 40 39 38 37 36 36 39 41 38 32 29 29 29 28 26 24 25 26 27 28 28 27 26 25 26 25 22 21 21 20 21 23
48 48 44 40 38 36 31 28 27 27 28 30 31 31 30 28 27 28 29 30 31 31 29 29 29 29 29 29 29 28 28 27 28 29 30 32 31 31 32 33 35 38 43 45 45 44 44 45 46 45 44 42 40 40 40 39 38 36 33 33 37 39 36 33 31 30 29 27 25 24 24 25 27 28 28 27 26 26 26 24 22 22 22 21 23
47 46 42 39 38 36 33 29 25 24 26 28 28 29 29 26 25 25 27 29 31 32 31 29 29 29 30 29 29 28 27 26 28 29 30 32 31 31 31 32 34 37 40 45 48 47 46 46 45 45 45 44 42 39 38 38 37 36 35 32 31 34 35 32 30 30 30 28 25 24 25 25 26 27 27 27 27 26 27 25 24 24 23 22 22
44 42 37 36 37 36 34 31 28 26 26 26 26 26 27 26 24 23 26 28 31 33 32 30 29 29 30 30 28 28 27 27 29 30 30 31 30 29 30 31 32 34 36 39 45 48 49 48 47 46 45 45 44 41 39 38 37 36 36 35 32 30 31 29 28 29 30 29 27 25 26 25 26 27 26 27 28 27 28 27 25 24 24 23 23
39 35 32 31 33 34 33 33 31 30 29 27 26 27 28 29 27 25 27 28 31 33 33 32 31 29 29 30 29 27 28 28 30 31 31 31 29 29 29 29 30 31 32 33 37 44 49 50 50 49 47 45 44 43 42 41 39 37 37 38 36 34 32 31 30 30 31 30 28 27 27 26 26 27 27 27 29 29 28 28 26 25 25 24 24
36 34 32 31 31 31 33 35 34 34 32 30 30 32 32 31 30 29 28 30 31 32 33 34 33 32 31 31 29 28 28 30 31 31 31 30 28 28 27 27 27 28 29 31 33 38 43 46 48 50 49 46 45 43 43 43 42 40 39 39 39 38 36 34 33 33 32 32 31 30 29 28 28 28 28 27 28 30 29 29 28 27 26 26 25
36 36 36 34 32 32 34 37 37 37 36 34 34 35 34 32 32 31 30 31 32 32 33 34 34 33 32 31 30 29 29 31 32 31 29 28 27 27 26 26 26 26 27 29 30 33 36 40 42 46 48 48 46 44 43 43 42 42 40 40 41 40 38 37 36 35 34 33 32 32 31 30 30 30 30 28 29 32 31 30 30 29 27 27 27
35 37 38 37 35 34 35 37 39 40 40 38 36 36 35 34 33 33 33 33 33 34 34 33 33 34 33 33 31 31 31 31 32 30 27 25 24 24 24 24 24 25 26 27 29 30 32 35 37 40 44 47 48 47 45 43 43 42 41 40 40 39 39 39 39 38 36 35 34 34 33 32 32 32 33 30 29 31 33 32 32 31 30 28 28
33 35 36 36 36 36 37 36 38 42 43 40 38 37 36 35 35 34 34 34 34 35 34 32 32 33 34 34 33 32 32 31 31 29 26 23 21 19 19 20 22 24 25 26 28 29 31 33 35 36 39 44 48 49 48 46 45 44 42 41 40 39 38 37 37 38 37 36 35 34 34 33 33 34 33 30 28 29 31 32 33 33 33 32 30
33 34 35 35 35 37 38 37 38 42 44 43 40 38 36 35 34 33 32 32 33 34 34 33 32 33 33 33 34 33 32 32 31 29 28 26 23 20 19 19 22 24 24 24 26 27 30 32 33 35 37 41 45 49 50 50 48 47 45 43 42 40 40 39 36 35 35 34 34 33 34 34 34 33 30 28 27 27 28 29 29 30 32 34 34
32 34 34 35 35 36 38 39 40 39 42 44 41 39 39 37 34 33 31 30 31 33 34 34 35 35 33 32 32 32 31 31 32 31 31 29 25 23 22 23 25 25 24 23 24 25 27 29 32 34 36 39 43 46 48 50 51 51 49 48 46 44 43 43 40 37 36 35 34 34 34 34 33 32 30 28 28 27 27 27 27 28 29 32 35
32 33 34 35 35 36 37 39 41 41 40 42 42 41 41 39 37 35 31 29 30 32 35 36 34 34 35 33 31 31 31 30 33 35 34 32 28 26 26 28 29 28 26 25 25 26 27 28 30 32 34 37 41 44 46 47 49 50 50 50 49 49 47 46 44 42 39 37 36 35 34 34 32 31 30 30 30 29 29 29 28 28 29 30 32
32 32 33 34 35 36 37 38 41 43 42 41 43 43 41 39 39 37 34 32 30 30 33 35 34 34 36 36 33 32 32 31 33 37 38 36 33 32 30 30 30 28 27 27 27 29 29 29 29 30 31 34 38 42 45 47 46 46 46 47 48 48 48 47 46 45 42 40 38 37 36 34 32 31 30 31 31 31 31 30 30 29 30 31 32
31 32 33 34 34 35 36 38 40 42 43 42 42 44 43 40 38 38 36 35 33 32 32 32 34 34 35 36 34 32 33 33 34 37 41 40 37 36 34 31 31 30 30 30 30 32 32 30 30 30 30 31 34 38 43 46 47 46 44 44 44 45 45 45 45 45 44 42 40 40 38 35 34 33 32 31 31 32 31 31 30 30 30 32 33
30 32 32 33 34 35 36 38 39 41 43 44 43 44 46 44 40 38 37 36 36 36 36 34 33 34 33 35 35 33 33 35 37 38 40 40 40 40 38 36 35 33 32 32 35 38 35 31 30 31 30 30 31 34 38 42 45 47 47 44 42 42 43 44 44 44 44 43 43 43 42 39 36 35 34 33 32 32 31 31 31 30 30 30 30
31 32 32 32 33 34 36 37 39 40 42 45 44 44 46 47 44 41 39 39 40 39 38 38 36 34 34 34 34 34 33 35 38 40 42 41 41 41 41 40 38 35 34 34 38 40 35 31 31 32 31 30 29 30 32 36 40 44 48 49 46 44 43 43 44 44 44 44 44 45 45 44 42 40 38 37 35 34 33 32 32 32 31 31 29
31 31 32 32 34 35 36 38 39 40 41 44 45 45 45 47 48 45 42 41 42 41 40 40 40 37 37 36 35 35 36 36 37 39 42 42 42 41 41 42 41 39 37 36 39 38 34 32 32 32 33 32 30 28 28 30 32 36 41 46 49 49 47 45 45 44 44 45 46 46 47 47 46 45 44 42 39 37 36 35 35 34 34 33 31
31 32 32 32 34 35 37 38 39 39 40 42 45 46 45 46 48 48 46 44 44 43 41 41 42 41 40 40 40 40 41 40 38 39 40 40 42 40 39 41 42 40 38 37 36 35 34 34 34 35 36 35 33 31 30 29 29 30 33 37 43 48 50 50 49 48 46 46 47 48 49 49 49 48 47 46 43 40 39 38 38 37 36 35 34
32 33 33 33 34 35 37 38 39 40 40 41 42 45 46 47 48 49 48 48 46 44 43 42 43 44 43 43 44 45 45 44 43 42 42 42 42 39 38 41 42 40 38 38 37 36 36 36 37 39 38 36 34 34 33 32 30 30 31 32 35 39 44 48 50 51 51 50 49 48 48 49 49 49 49 47 45 42 41 40 40 39 38 38 37
33 34 34 34 34 35 37 38 39 39 40 40 41 43 45 47 49 50 50 50 49 46 44 44 45 45 46 46 47 47 47 47 47 47 47 47 45 42 40 41 42 41 40 41 41 40 39 39 40 40 40 37 35 35 35 34 33 32 33 33 34 34 36 39 42 45 48 50 51 50 50 49 48 48 48 47 45 43 42 41 41 42 41 40 39
34 34 35 35 35 35 37 38 38 39 39 40 40 40 43 46 49 51 51 52 52 50 47 46 46 47 48 48 49 49 49 49 50 50 50 49 48 47 46 45 46 45 44 44 45 44 42 43 43 43 42 41 39 38 39 39 38 36 35 34 34 33 33 34 34 35 37 39 42 45 47 49 49 49 48 47 46 45 43 42 43 43 43 43 42
35 35 35 35 36 36 37 37 38 38 39 39 40 40 40 43 47 50 52 53 55 53 50 49 49 49 50 51 51 51 51 51 52 53 52 51 50 50 49 50 50 49 47 46 46 45 44 44 45 46 46 46 44 43 42 42 40 38 36 35 34 34 33 32 31 31 31 32 34 36 39 41 44 46 47 47 46 46 45 43 43 44 45 45 45
35 35 36 36 36 37 37 38 38 38 39 39 40 40 40 41 44 48 51 53 56 56 52 52 52 51 51 52 53 53 53 53 53 53 54 54 53 52 50 50 51 51 51 50 48 46 46 46 46 46 48 48 47 45 43 43 42 41 39 38 37 37 36 35 34 34 34 35 34 34 34 36 37 39 42 43 44 45 46 45 44 43 44 45 45
36 36 36 37 37 38 38 38 39 39 39 39 40 41 41 42 43 45 49 52 55 57 55 54 55 55 53 53 54 55 55 55 55 55 55 55 55 55 54 52 52 52 53 53 52 50 48 48 48 47 48 48 47 46 44 44 43 43 42 42 41 41 40 39 39 39 39 38 36 35 34 35 37 37 38 40 42 44 45 46 47 46 45 45 45
37 37 38 38 39 39 39 39 40 40 40 40 41 41 42 42 43 44 47 50 53 56 57 57 57 57 57 55 54 55 56 57 57 57 57 56 56 56 56 56 55 54 54 54 54 52 51 51 51 50 49 49 48 47 47 47 45 44 44 45 45 44 43 43 42 42 41 40 40 38 36 37 38 38 37 37 40 42 43 45 46 48 48 48 47
39 39 39 39 40 41 41 41 41 41 41 41 42 42 43 43 44 44 46 48 51 54 57 58 59 59 60 59 57 56 58 58 58 59 59 58 57 57 57 58 58 57 56 56 56 55 54 53 53 53 52 52 51 51 50 50 48 47 48 47 47 46 45 45 46 46 46 45 43 41 40 39 39 40 39 38 38 39 41 43 45 46 48 49 50
41 41 41 41 42 42 43 43 43 43 43 43 43 44 44 45 45 45 46 47 49 52 54 57 58 59 61 62 61 58 58 60 60 60 60 60 60 59 58 59 60 60 59 59 59 58 58 57 56 56 55 55 55 54 54 53 51 52 53 51 50 49 47 48 49 49 49 48 46 45 44 43 41 41 41 40 40 39 39 40 42 44 46 47 49
45 44 43 43 43 44 44 45 45 45 45 45 45 45 46 46 47 47 47 47 49 51 53 55 56 58 59 63 66 63 59 60 62 62 62 63 62 62 61 60 60 61 62 62 62 61 61 60 60 60 59 59 59 59 58 57 56 57 57 55 55 53 51 52 51 51 51 50 49 48 47 46 45 43 42 41 41 41 40 39 40 41 43 45 47
48 47 47 46 45 45 46 47 47 47 47 47 48 48 48 48 49 49 49 49 50 51 53 54 55 56 58 60 65 67 64 61 62 64 64 65 64 65 65 64 63 62 62 62 62 62 62 61 62 62 63 63 63 63 62 61 61 61 60 59 58 57 56 56 54 53 53 52 51 49 49 48 47 46 44 43 43 42 42 41 40 40 41 42 43
50 50 50 49 49 48 48 48 49 49 50 50 50 50 51 51 51 51 51 51 52 52 52 54 55 56 57 58 62 66 67 65 63 64 66 67 66 66 67 68 68 67 66 64 63 61 60 61 61 61 62 63 63 63 62 62 62 62 61 60 60 59 58 58 57 56 56 55 53 51 50 50 50 49 48 46 45 44 44 43 43 42 41 40 40
52 52 52 52 52 51 51 50 51 52 52 52 52 52 53 53 53 53 53 53 54 54 54 54 55 56 57 58 59 62 65 66 65 65 66 68 69 68 68 68 69 71 71 71 69 66 64 63 63 62 62 63 63 62 62 62 63 63 63 63 63 63 62 61 60 59 58 58 57 55 53 52 52 52 51 50 48 47 45 45 45 44 43 42 42
55 55 55 54 54 54 54 54 53 54 54 55 55 55 55 55 55 55 56 55 55 56 56 56 56 57 58 58 59 61 62 64 64 65 66 67 69 70 70 69 69 71 73 74 75 73 71 69 69 67 66 66 66 65 64 64 65 66 67 67 67 67 66 64 63 61 60 60 59 58 57 56 55 54 54 53 52 50 49 48 47 47 46 45 45
57 57 57 57 57 57 57 57 57 56 57 57 57 58 58 58 58 58 57 58 58 57 58 58 58 58 59 59 60 61 62 63 63 64 65 66 68 69 71 71 70 71 72 74 76 77 77 76 76 75 74 73 73 71 70 69 69 70 71 71 71 71 70 68 66 64 62 62 61 60 59 59 58 57 56 55 55 54 53 51 51 50 49 49 48
58 59 59 59 60 60 60 60 59 60 60 60 60 60 60 60 60 60 60 59 59 59 59 60 60 60 60 61 61 62 63 63 64 64 64 65 66 67 69 71 71 71 71 72 73 75 78 79 80 80 80 80 80 78 77 76 77 76 76 76 75 75 73 72 71 69 67 66 65 63 62 61 61 59 59 58 58 57 56 55 55 54 53 53 52
61 61 61 61 62 63 63 62 62 62 63 63 64 64 63 63 63 63 62 62 61 61 61 61 62 62 62 62 63 63 64 64 65 66 66 66 66 67 68 69 70 71 72 72 72 72 73 76 78 80 81 82 83 82 82 82 82 82 82 81 79 77 75 74 74 73 71 70 70 68 66 66 65 64 63 62 61 61 60 59 59 58 58 57 56
64 64 63 64 64 64 65 65 65 65 66 67 67 67 67 67 67 66 65 65 64 64 64 64 64 64 64 65 65 66 66 66 67 67 68 68 68 68 68 69 69 70 72 73 73 73 73 73 75 76 77 79 81 82 83 83 83 83 83 82 81 79 76 75 74 74 73 73 73 73 72 71 70 69 68 68 67 65 65 64 64 63 62 62 61
67 67 67 67 66 66 66 67 67 68 69 70 70 70 70 70 70 69 69 68 68 68 67 67 67 67 67 67 67 68 68 69 69 69 70 70 70 70 70 70 70 70 71 72 73 74 74 74 75 75 76 76 77 79 81 81 82 82 83 82 82 81 80 79 78 78 77 77 77 77 76 75 74 74 73 72 71 70 69 68 67 67 67 67 66
69 70 70 69 69 69 69 69 70 71 72 72 73 73 73 73 73 73 73 73 73 72 71 71 70 70 69 69 69 69 70 71 72 72 72 73 73 73 73 72 72 72 72 73 73 74 75 75 76 76 77 76 76 78 79 80 80 81 81 82 82 83 84 84 84 83 83 82 81 80 80 79 78 78 78 78 77 76 74 73 71 70 70 70 70
70 71 71 71 72 72 72 72 73 74 74 74 75 76 77 77 77 77 77 77 76 76 75 75 74 74 73 73 72 72 72 73 73 73 74 75 75 75 76 75 75 75 74 75 75 75 76 76 77 78 78 78 78 78 79 79 79 79 80 80 80 81 82 83 84 85 86 85 85 84 83 82 82 81 81 81 81 80 79 77 76 74 73 72 72
67 68 69 71 72 73 73 74 76 77 77 77 79 80 80 80 80 80 80 80 79 79 79 78 78 78 77 77 76 76 76 76 76 75 75 76 76 77 77 78 78 77 77 77 78 78 78 78 79 79 79 80 80 81 81 80 80 79 80 80 80 80 81 81 82 83 84 84 85 85 84 84 84 84 83 83 83 82 81 80 79 78 77 75 74
64 65 67 69 71 71 72 74 77 79 79 81 82 83 83 82 81 81 82 82 82 82 82 82 81 81 81 81 81 81 81 80 79 79 79 78 78 78 79 79 79 79 80 80 80 80 80 80 81 81 81 82 83 83 83 83 82 81 81 81 81 81 82 82 82 82 83 83 83 83 83 84 84 84 84 84 84 84 83 82 81 80 79 78 76
64 64 66 68 69 70 72 74 76 77 78 81 83 84 85 84 84 84 83 84 84 84 84 84 84 84 85 84 84 85 85 84 83 83 82 82 81 81 81 81 81 81 81 82 82 82 83 83 83 83 84 84 85 86 86 86 85 85 84 84 83 83 84 84 84 84 85 85 84 83 83 84 85 84 83 83 84 84 84 83 82 81 80 79 78
65 65 66 67 68 70 71 73 74 75 77 79 81 83 85 86 87 87 86 86 86 85 86 86 87 87 88 88 88 88 88 87 87 87 86 86 85 85 84 84 84 84 84 84 84 84 85 85 85 85 86 86 87 87 88 88 88 88 87 86 86 86 86 86 86 87 87 87 86 85 85 86 86 85 83 83 84 84 83 83 83 82 81 81 80
67 67 67 67 68 69 70 71 73 74 75 77 78 80 82 84 87 88 88 88 88 88 88 88 88 89 89 90 90 90 90 90 90 90 90 89 89 88 88 88 87 87 87 87 87 87 87 87 86 87 88 88 88 89 89 90 90 90 90 89 88 88 88 88 88 89 90 90 89 88 87 88 88 87 85 85 85 84 83 83 83 83 82 82 81
70 69 69 69 69 70 71 71 72 72 73 75 76 77 79 81 84 86 87 88 89 90 91 91 91 91 91 92 92 92 92 93 93 93 92 92 91 91 91 91 91 91 90 90 90 90 90 90 90 89 90 90 90 90 91 91 91 92 92 92 91 90 89 89 89 90 91 93 92 90 88 89 91 89 87 87 88 87 85 83 83 83 83 82 82
72 71 71 71 71 71 72 72 72 72 72 73 74 76 78 80 82 83 84 86 88 89 90 91 92 93 94 94 94 94 93 94 94 94 94 94 94 94 94 94 94 94 94 94 94 94 94 94 93 93 93 94 94 94 94 94 94 95 95 95 95 94 93 92 92 93 94 95 96 94 91 91 93 93 90 89 89 89 87 84 84 85 84 83 83
74 73 73 72 73 73 74 73 73 72 72 72 73 75 77 79 81 83 84 86 87 89 89 90 90 92 93 94 95 95 95 95 96 96 96 96 95 95 95 96 96 96 96 97 97 98 98 97 96 96 97 97 98 98 98 98 98 98 98 98 98 98 98 97 96 96 97 98 99 99 96 94 95 96 95 93 92 91 88 85 84 86 86 84 83
75 75 74 74 74 75 75 74 73 73 73 73 74 75 77 79 81 83 85 87 89 90 91 91 92 92 92 93 93 94 94 95 96 97 97 97 97 97 96 96 97 97 98 99 100 100 99 99 99 99 99 100 100 101 101 101 102 102 101 101 102 103 102 101 100 100 101 101 102 103 102 100 99 100 100 98 96 93 91 87 85 87 87 85 84
75 75 75 75 75 75 75 74 74 73 73 74 75 76 77 79 81 83 85 87 89 90 91 92 93 93 94 94 93 93 93 93 94 95 96 97 98 98 99 99 99 99 99 100 100 100 99 99 100 100 101 101 102 102 103 103 104 105 104 104 105 106 105 104 104 104 103 104 105 106 106 104 104 104 104 103 101 97 94 91 88 88 90 88 84
76 76 76 76 76 76 75 74 74 74 74 74 75 77 78 80 81 83 84 85 87 88 90 91 92 93 94 95 95 95 94 93 92 93 93 95 96 97 98 99 100 101 102 102 102 101 101 101 101 101 101 102 102 103 104 104 106 106 106 105 106 107 107 106 106 105 105 106 108 109 109 107 107 107 107 106 103 100 98 95 91 91 94 91 87
Wind_Direction
280 279 280 281 279 278 277 276 274 272 272 270 268 267 266 264 262 262 259 253 252 251 245 242 240 238 240 243 241 240 240 239 237 235 236 239 240 242 239 233 228 227 230 232 233 236 238 239 239 239 240 241 242 244 246 253 259 261 262 260 258 258 261 263 262 266 272 275 277 275 270 265 263 265 267 269 271 272 273 267 259 261 269 278 284
279 277 278 278 276 274 274 274 269 264 263 262 264 265 262 259 256 256 254 247 244 246 244 239 239 238 238 240 238 237 236 236 236 235 238 243 244 243 239 233 227 225 228 233 235 236 239 241 242 242 242 242 242 244 245 249 255 259 262 262 258 256 258 261 261 264 269 272 273 273 272 268 264 264 266 267 269 270 271 268 262 261 267 274 279
275 274 273 271 269 267 265 262 258 257 256 254 256 260 261 258 254 251 250 245 237 238 241 239 238 237 235 235 235 234 233 233 236 238 241 246 246 241 236 233 230 226 225 230 235 237 238 240 242 244 245 245 244 244 246 248 252 256 259 263 260 256 256 262 265 266 266 267 267 269 270 269 267 264 264 265 267 268 269 267 263 261 265 271 274
269 270 270 266 263 259 254 249 247 249 249 247 246 252 257 256 253 249 246 243 235 232 237 239 237 237 234 232 231 232 233 234 237 241 246 249 245 238 235 234 231 228 225 226 231 235 238 239 240 242 243 244 243 243 246 247 251 254 255 257 257 254 256 261 264 263 261 260 262 266 269 272 272 268 264 263 264 265 266 266 264 261 264 269 270
267 268 269 264 258 254 249 242 237 238 242 242 243 249 252 251 251 248 242 241 236 229 232 238 238 238 235 231 228 229 233 236 239 243 248 250 244 237 235 234 232 230 229 228 229 232 235 238 238 238 240 242 242 242 243 245 248 251 253 252 251 251 253 257 259 259 256 255 258 263 269 275 278 276 270 263 260 262 264 264 263 262 264 267 266
264 263 264 260 253 249 244 237 231 232 236 235 240 246 245 242 245 246 243 243 239 229 229 236 239 239 235 230 226 226 230 236 240 243 248 248 243 237 233 232 233 233 234 235 233 232 234 237 238 238 237 238 240 241 242 244 246 249 252 252 252 251 253 256 259 259 256 254 257 260 266 274 280 281 277 267 258 257 260 262 262 262 264 266 263
260 255 255 252 248 243 238 235 229 228 231 228 232 240 241 238 239 242 244 244 242 232 231 237 240 241 237 232 228 226 228 235 240 243 246 247 241 236 234 233 234 235 236 236 235 234 235 238 239 239 238 236 236 238 241 244 246 248 250 253 253 252 253 256 260 261 258 256 258 260 263 270 276 279 278 270 257 253 255 258 260 260 262 264 262
255 252 250 248 245 241 235 232 228 227 229 226 228 235 239 237 236 240 243 244 242 236 236 238 240 242 240 235 232 229 229 234 239 242 246 246 240 237 237 237 237 238 239 239 237 236 237 240 242 242 241 238 236 237 239 241 244 246 247 250 252 253 253 255 259 260 257 256 258 260 262 268 273 274 275 269 257 250 251 254 257 259 260 261 260
250 249 248 246 243 239 234 230 226 225 227 226 227 232 235 234 234 237 240 241 240 237 237 239 238 239 240 238 234 231 230 232 235 239 243 240 237 237 236 237 238 239 241 242 242 240 239 242 244 244 242 240 238 238 239 240 242 244 245 248 250 252 254 256 259 259 257 255 257 261 264 268 270 271 270 266 258 251 251 254 256 258 259 260 260
247 246 246 244 240 236 234 231 227 225 225 225 225 228 230 230 231 235 237 237 237 236 235 235 234 234 236 239 238 235 234 233 231 231 231 227 226 232 235 238 239 239 242 243 244 244 243 243 244 244 243 243 241 240 241 242 242 243 245 247 249 250 252 254 256 257 257 257 259 263 265 266 266 267 266 262 257 253 253 255 258 260 260 260 260
246 245 244 242 239 235 234 232 229 225 224 223 224 227 228 228 229 232 235 236 235 234 233 230 229 229 231 234 238 238 236 234 229 223 220 217 216 223 232 239 240 240 243 246 247 247 247 246 245 243 242 242 244 244 243 243 244 244 246 247 249 249 250 251 253 255 257 258 260 262 263 264 264 262 261 258 255 255 256 259 262 263 262 260 259
244 243 243 241 238 235 233 232 229 225 224 223 223 227 229 228 227 227 230 235 236 236 234 231 229 227 226 226 233 238 238 234 227 219 215 215 215 221 229 237 239 240 245 249 252 252 250 249 248 245 241 240 241 244 246 246 246 246 248 249 249 250 251 253 255 255 256 258 259 260 262 263 262 259 256 257 256 257 259 262 265 267 266 263 260
243 242 241 241 239 236 233 231 228 225 224 222 221 223 227 227 226 224 224 231 236 237 236 233 231 228 225 222 225 233 237 236 228 219 216 217 220 225 232 236 237 238 242 246 250 254 254 252 251 248 245 242 239 241 244 248 249 249 250 250 251 251 251 253 256 256 256 256 257 258 260 261 260 257 256 258 258 259 260 263 265 268 269 267 263
242 241 240 239 238 236 234 231 229 226 224 221 219 219 221 225 226 223 221 223 227 231 235 234 232 230 226 223 221 227 233 235 230 222 219 220 221 225 230 236 241 244 248 251 252 255 255 255 254 253 250 247 243 241 240 243 247 250 251 252 252 253 252 253 255 256 256 256 255 256 257 257 256 254 255 257 258 260 261 263 264 266 268 268 266
241 239 239 239 238 236 234 232 230 227 224 221 219 219 220 223 224 222 219 218 220 224 228 231 231 230 226 223 222 224 229 232 230 226 223 223 224 224 224 228 237 247 255 261 261 258 256 256 256 257 256 254 250 246 243 241 242 244 248 251 252 253 254 254 255 256 256 256 254 254 253 253 253 253 254 256 258 259 262 263 264 266 269 270 268
239 239 239 238 237 235 234 232 231 229 225 221 219 220 221 222 223 223 219 216 217 222 225 227 228 226 222 220 221 221 224 227 229 229 229 228 229 228 226 224 227 233 242 254 260 258 254 253 256 259 261 259 256 252 248 245 243 242 242 245 248 249 251 253 254 255 256 255 254 253 252 251 252 254 255 256 258 259 261 264 264 266 269 270 269
240 240 239 237 236 235 233 232 232 230 227 224 221 220 221 221 222 223 221 218 217 219 223 226 225 221 217 217 218 219 221 222 224 229 234 235 235 235 234 233 233 232 233 239 249 252 250 250 253 258 262 261 259 257 253 250 248 245 243 242 243 245 247 249 252 254 255 254 253 253 253 253 255 257 258 259 260 260 261 263 265 266 267 268 268
243 242 240 238 236 234 232 231 232 231 229 227 224 222 221 221 222 223 222 221 221 220 220 223 225 222 218 216 217 219 222 223 222 225 232 237 240 239 239 240 240 238 236 236 242 247 249 248 247 253 260 261 260 260 259 255 253 252 249 246 244 244 246 247 249 251 254 255 255 255 256 256 257 259 260 261 261 260 260 261 264 266 266 266 267
245 245 243 239 236 234 233 232 231 231 229 228 227 225 223 222 222 223 223 222 223 224 221 219 223 224 221 219 218 218 220 222 222 223 226 232 238 241 242 242 241 238 236 236 238 242 246 246 242 243 249 253 256 260 262 261 258 256 254 251 248 247 246 247 248 249 251 254 257 258 259 260 260 261 261 262 262 261 260 259 261 264 264 264 264
244 245 245 242 238 235 233 233 232 232 230 229 228 228 226 224 222 223 224 223 223 227 225 219 221 224 223 222 221 221 221 221 221 222 222 224 230 236 241 245 245 241 234 232 236 239 243 246 243 242 243 244 250 256 260 260 259 258 256 253 251 250 249 248 249 249 250 252 254 257 259 261 262 263 263 262 261 260 259 258 258 260 262 262 262
243 244 244 243 240 237 235 234 234 233 231 231 229 228 228 227 225 223 223 223 223 226 226 222 222 224 224 224 224 225 225 225 224 223 223 223 224 227 232 239 244 241 233 229 232 236 240 243 243 241 238 238 244 251 254 253 251 253 254 253 252 252 251 250 251 251 251 252 253 254 256 257 259 261 262 262 261 260 259 258 258 259 260 261 261
244 243 243 243 241 239 237 236 235 235 233 232 231 230 229 228 228 227 225 224 223 225 224 222 222 225 225 225 225 226 227 228 229 228 226 225 224 226 229 234 239 241 237 232 231 232 235 238 237 235 233 234 238 242 244 244 245 247 250 253 254 253 253 254 254 255 255 256 256 256 256 256 257 258 259 261 261 260 259 257 256 257 259 259 260
246 245 244 242 241 240 238 237 237 237 236 235 233 232 231 230 230 230 228 226 225 226 225 221 221 223 225 226 226 226 227 228 230 231 230 228 227 228 230 233 238 242 242 240 236 234 234 236 236 235 235 236 238 239 240 242 246 250 252 254 254 255 255 256 257 258 260 261 262 262 261 260 259 259 259 259 260 260 260 259 256 255 257 259 260
247 246 245 243 241 240 239 238 239 239 238 237 236 234 233 232 231 231 231 230 229 229 228 224 221 221 222 226 227 226 227 229 230 232 233 232 230 230 232 234 237 241 244 244 242 239 238 238 238 238 240 241 243 244 244 245 249 252 253 253 253 253 254 255 256 258 260 262 262 262 264 265 265 263 262 262 261 260 261 261 260 258 257 259 260
248 247 246 244 242 241 240 239 239 240 240 239 238 237 235 234 233 232 232 232 231 232 230 226 224 223 221 223 227 229 229 230 231 233 234 235 234 234 234 236 238 240 243 245 246 246 246 245 244 243 244 245 247 247 247 247 249 251 253 253 253 253 253 254 255 256 258 260 259 260 264 266 267 266 265 265 264 263 262 262 262 262 261 260 261
249 248 247 245 243 242 241 240 239 240 240 241 240 239 238 236 235 233 232 233 232 233 233 230 227 227 226 223 223 228 231 231 232 234 236 237 238 238 238 238 238 239 240 243 245 246 248 249 249 248 247 247 248 248 247 247 249 251 253 254 254 254 254 255 256 257 257 257 257 259 264 266 266 267 268 268 268 267 266 264 264 263 263 263 262
250 249 248 246 244 243 242 241 240 240 240 241 241 240 239 238 237 236 234 233 234 234 234 233 231 230 230 228 224 224 228 231 233 234 235 237 238 241 244 244 243 241 240 241 242 244 246 247 248 249 248 248 248 248 248 248 249 251 253 254 254 255 256 257 257 258 258 258 258 260 263 264 266 268 269 269 270 270 269 268 267 266 265 264 263
250 250 249 248 246 244 243 242 241 241 241 241 241 241 240 239 239 238 236 235 234 235 235 235 235 234 232 231 230 227 225 228 231 234 235 236 236 237 241 244 246 247 246 244 244 245 246 246 247 248 248 249 250 250 251 251 251 252 253 254 254 254 256 258 258 258 259 259 259 260 262 263 265 267 268 268 269 270 270 269 268 267 266 265 264
249 249 249 248 247 246 244 243 242 242 242 241 241 241 241 241 240 239 238 237 236 235 236 236 237 237 235 233 233 233 230 226 228 231 234 236 236 236 235 236 239 244 247 248 248 248 249 248 248 248 249 251 252 253 254 255 255 255 255 255 256 255 255 257 258 259 259 259 259 259 261 263 265 267 268 268 268 268 268 268 267 267 267 266 266
249 249 249 248 248 247 245 244 243 242 242 243 242 242 241 241 240 239 239 238 237 236 236 237 237 238 237 235 234 235 235 231 227 228 231 234 236 238 237 236 235 237 240 244 247 249 250 251 251 251 252 253 255 256 257 258 258 258 257 257 258 258 258 259 261 262 261 261 259 259 260 263 266 268 268 268 267 267 266 266 266 267 267 267 267
249 249 249 248 248 247 246 245 244 244 243 243 243 243 242 241 241 240 239 239 238 238 236 237 238 238 238 238 236 236 237 237 233 230 230 231 234 236 238 239 239 238 239 240 241 242 245 248 251 252 254 255 257 259 260 261 261 261 261 262 263 263 263 264 266 267 267 266 264 262 261 263 266 268 269 269 267 266 266 266 265 265 266 266 266
250 250 250 249 248 247 247 246 245 245 244 244 244 243 243 242 241 241 241 240 239 239 238 237 237 238 238 239 239 238 238 240 239 236 233 232 233 235 236 239 241 241 241 242 241 240 240 242 245 247 250 253 255 258 260 261 262 263 264 265 266 267 267 267 267 268 268 268 267 266 264 264 266 267 268 269 268 267 266 266 266 265 265 265 265
249 249 250 250 249 248 247 247 246 246 245 245 245 245 244 243 243 242 241 241 241 240 240 239 238 238 238 239 239 240 240 241 242 241 239 237 236 236 236 237 239 240 242 243 244 243 242 243 244 245 246 249 251 253 256 258 259 261 263 265 266 267 267 268 267 267 266 265 265 266 265 265 265 265 267 268 269 268 267 266 266 266 266 265 265
248 248 248 249 249 248 248 247 247 247 247 246 246 246 246 245 244 244 242 242 242 242 241 241 240 239 239 239 239 240 241 241 242 243 243 242 241 240 240 239 239 240 240 242 243 244 244 244 246 247 247 248 249 251 252 254 256 258 261 263 265 266 267 267 267 266 266 265 264 264 264 264 264 265 266 267 268 268 268 267 267 267 267 266 265
249 248 247 247 247 247 247 247 247 247 247 247 247 247 246 246 246 245 245 243 243 242 242 242 242 242 241 241 241 241 241 242 243 243 244 244 244 244 243 243 243 243 243 243 244 245 245 245 245 246 247 248 249 250 251 253 254 256 258 259 261 263 264 264 265 265 265 265 265 264 264 264 264 265 266 267 268 268 268 268 268 268 268 267 266
248 248 248 247 246 246 246 246 247 247 247 247 247 247 247 247 247 246 246 246 245 244 244 243 242 242 242 242 242 242 242 243 243 244 244 245 245 245 245 245 246 246 247 248 249 248 248 247 246 246 246 247 248 249 250 251 252 253 255 256 257 258 259 260 261 262 263 263 264 264 264 264 264 265 266 266 267 267 268 268 268 268 268 268 268
249 248 248 247 247 246 246 246 246 247 247 247 246 246 246 246 247 247 247 247 247 246 246 245 244 243 242 242 242 242 243 243 243 244 244 245 245 246 246 246 247 247 248 249 251 252 252 252 251 250 248 248 248 248 249 249 250 251 252 253 254 255 256 257 258 259 260 261 262 262 263 264 264 264 264 265 265 266 266 266 267 268 268 269 269
249 249 249 248 248 247 247 246 246 246 247 247 247 246 246 246 246 247 247 247 247 247 247 247 246 246 245 243 243 242 242 242 243 243 244 245 245 246 246 247 247 247 248 250 251 252 253 254 254 254 254 253 252 252 251 250 251 251 252 252 253 253 254 256 257 258 259 260 261 261 262 262 262 263 264 264 265 265 264 264 265 266 267 268 268
250 249 249 249 249 249 248 248 247 247 247 247 247 247 246 246 246 246 246 246 246 246 247 247 247 247 247 246 246 245 244 243 243 243 243 244 245 245 246 247 247 247 248 249 250 251 253 254 254 255 256 256 256 256 256 255 254 254 254 254 254 254 254 254 255 256 257 258 259 260 261 261 261 262 262 263 263 264 264 264 264 264 264 265 266
251 250 250 249 249 249 249 249 249 249 249 248 248 248 247 246 245 245 245 245 245 245 246 246 247 247 247 247 247 247 247 246 245 244 244 244 244 245 245 246 247 247 248 249 250 251 252 253 254 255 255 256 257 257 257 258 257 257 257 257 257 256 256 255 255 255 256 256 257 258 259 260 260 261 261 262 262 262 263 263 263 263 263 263 264
253 253 252 250 249 249 249 250 250 250 250 249 249 249 248 247 246 246 246 246 246 246 246 246 246 247 247 247 248 248 247 247 247 247 246 246 245 245 245 245 246 247 247 248 249 250 251 252 253 254 255 255 256 257 257 258 258 258 258 258 258 258 258 258 257 257 256 256 256 257 257 257 258 259 260 261 261 262 262 262 262 262 262 262 262
254 254 253 252 251 249 249 249 249 249 250 250 250 250 250 249 249 248 247 247 246 246 247 247 247 247 247 247 248 248 248 248 247 247 247 247 247 247 247 247 246 246 247 248 249 250 251 252 253 254 255 255 256 256 257 257 257 257 258 258 258 258 259 259 258 258 258 257 256 256 257 257 257 257 258 258 260 260 261 261 261 261 261 261 261
254 253 253 253 252 251 249 249 249 249 250 251 252 252 252 251 251 250 249 249 248 248 248 248 248 248 248 248 248 248 248 248 248 248 248 248 248 248 248 248 248 248 248 248 248 249 250 251 252 253 254 255 255 256 257 257 257 257 257 257 258 258 258 259 259 259 259 258 257 257 257 257 257 257 257 257 258 258 259 260 260 260 260 260 260
256 255 254 254 253 252 251 251 250 250 250 250 252 253 254 254 253 252 251 250 249 249 249 249 249 249 249 248 248 248 249 249 249 249 249 249 249 249 249 249 249 249 249 249 249 250 250 250 251 252 253 254 255 256 256 257 257 257 256 256 257 257 258 258 259 259 259 259 258 258 257 257 257 257 257 257 257 257 258 259 259 259 260 260 260
258 257 256 255 255 254 253 252 252 251 251 251 252 253 254 255 255 255 254 253 252 251 250 249 249 249 249 249 249 249 249 249 249 249 249 250 250 250 250 250 250 250 250 250 250 251 251 251 251 252 253 254 254 255 256 257 257 258 257 257 256 256 257 258 258 259 259 259 259 258 258 258 257 256 256 256 256 256 256 257 258 259 259 259 259
259 258 258 257 257 256 255 254 253 252 252 252 253 253 254 255 255 256 256 256 255 254 253 252 251 250 250 250 250 250 250 250 250 250 250 250 250 251 251 251 251 251 251 251 251 252 252 252 252 253 254 254 255 255 256 257 258 259 259 259 258 257 257 257 258 259 260 260 260 258 258 259 259 258 256 256 256 256 255 255 257 258 258 258 259
259 259 259 258 258 257 257 256 255 254 254 253 254 254 254 254 255 255 256 256 256 256 255 254 254 253 252 251 251 251 251 251 251 251 251 251 251 251 251 251 252 252 252 252 252 252 253 253 253 253 254 255 255 256 256 257 258 258 259 260 260 260 259 259 259 259 260 261 261 260 259 259 260 260 259 257 257 257 256 255 255 256 256 256 257
260 260 259 259 258 258 258 257 257 256 256 255 254 254 254 255 255 255 256 256 256 256 257 257 256 255 254 253 253 252 252 252 253 253 253 252 252 252 252 252 252 252 253 253 253 253 253 254 254 254 255 255 256 256 257 257 258 258 258 259 260 260 260 260 260 260 260 261 262 262 261 260 261 261 261 259 258 258 257 256 255 256 255 255 255
261 261 260 260 259 259 258 258 258 258 257 257 256 255 254 254 254 255 255 255 256 256 257 257 258 257 257 256 255 254 253 253 253 253 254 254 254 254 253 253 253 253 253 253 253 254 254 254 255 255 255 255 256 256 257 257 257 258 258 258 259 259 259 260 260 260 260 260 261 262 262 261 261 261 261 261 260 259 258 257 256 257 256 255 254
261 261 261 261 260 260 259 259 259 258 258 257 257 257 256 255 255 254 254 255 256 256 257 258 258 259 259 259 259 258 256 255 254 253 253 254 254 254 255 254 254 254 254 254 254 254 254 255 255 255 256 256 256 257 257 257 258 258 258 258 258 259 259 259 259 259 260 260 261 261 261 260 260 260 260 260 260 259 259 258 257 257 257 256 255
261 261 261 261 261 261 261 260 260 259 258 258 257 257 257 257 257 256 256 256 256 256 257 258 259 259 259 260 260 260 260 259 257 256 255 254 254 254 254 255 255 255 255 255 255 255 255 256 256 256 256 257 257 257 257 258 258 258 258 258 258 259 259 259 259 259 259 260 260 260 260 260 259 259 259 259 259 258 258 258 257 257 257 257 255
Height
10712 10711 10713 10715 10715 10714 10714 10714 10715 10716 10715 10713 10711 10710 10710 10711 10712 10714 10715 10716 10716 10719 10721 10722 10723 10725 10726 10728 10729 10731 10732 10734 10735 10737 10738 10739 10741 10742 10743 10745 10747 10749 10751 10753 10754 10756 10758 10759 10760 10762 10764 10765 10766 10768 10769 10770 10771 10772 10774 10775 10777 10778 10780 10781 10782 10783 10783 10784 10785 10786 10786 10787 10788 10788 10789 10790 10790 10790 10791 10792 10792 10792 10792 10792 10792
10704 10704 10708 10709 10708 10708 10709 10709 10709 10711 10711 10710 10707 10706 10706 10707 10708 10709 10710 10712 10714 10715 10717 10719 10719 10721 10722 10724 10725 10727 10729 10731 10732 10734 10735 10736 10738 10739 10741 10742 10744 10746 10748 10750 10752 10753 10755 10756 10757 10759 10760 10762 10763 10765 10766 10768 10769 10770 10771 10772 10773 10775 10777 10778 10779 10780 10781 10782 10783 10783 10783 10784 10785 10786 10787 10787 10788 10788 10789 10789 10790 10790 10790 10790 10790
10696 10697 10702 10702 10702 10703 10704 10704 10704 10705 10705 10704 10702 10701 10702 10703 10704 10705 10706 10708 10710 10712 10714 10715 10717 10718 10719 10720 10722 10724 10726 10728 10730 10731 10733 10734 10735 10736 10738 10739 10741 10743 10745 10748 10749 10750 10752 10753 10754 10756 10757 10759 10761 10762 10763 10765 10766 10767 10768 10769 10770 10772 10774 10775 10777 10778 10779 10779 10780 10780 10781 10781 10782 10783 10784 10784 10785 10786 10786 10787 10787 10788 10788 10788 10788
10689 10691 10695 10696 10695 10696 10698 10699 10700 10701 10700 10699 10698 10699 10700 10701 10700 10702 10703 10704 10706 10709 10711 10712 10714 10715 10716 10717 10718 10721 10723 10725 10727 10729 10730 10730 10732 10733 10734 10736 10738 10740 10742 10744 10746 10747 10748 10750 10751 10753 10754 10756 10757 10759 10761 10762 10764 10764 10766 10766 10767 10769 10771 10773 10774 10775 10776 10777 10777 10778 10778 10778 10779 10780 10781 10782 10782 10783 10783 10784 10785 10785 10786 10786 10786
10683 10685 10688 10689 10688 10690 10692 10694 10695 10696 10696 10697 10697 10697 10698 10698 10698 10699 10699 10700 10703 10706 10708 10710 10711 10712 10713 10714 10716 10718 10720 10723 10725 10726 10727 10727 10728 10730 10731 10733 10735 10737 10738 10740 10742 10744 10745 10746 10748 10749 10750 10752 10754 10756 10758 10759 10760 10761 10762 10763 10765 10766 10767 10769 10770 10771 10772 10773 10774 10775 10775 10776 10776 10777 10778 10778 10779 10780 10780 10781 10782 10783 10783 10783 10784
10677 10678 10681 10683 10682 10684 10687 10688 10689 10691 10692 10695 10695 10695 10695 10695 10696 10696 10697 10698 10700 10703 10706 10707 10708 10710 10711 10712 10713 10716 10717 10719 10722 10723 10724 10724 10725 10727 10728 10730 10732 10733 10735 10737 10739 10740 10741 10742 10744 10745 10747 10749 10751 10753 10754 10756 10757 10758 10759 10760 10762 10763 10764 10766 10767 10768 10769 10770 10771 10772 10773 10773 10773 10774 10774 10775 10776 10776 10777 10778 10779 10780 10780 10780 10781
10671 10672 10675 10677 10678 10680 10682 10682 10684 10686 10688 10691 10691 10691 10692 10693 10694 10694 10695 10696 10697 10700 10703 10704 10706 10708 10709 10709 10711 10713 10714 10716 10718 10719 10721 10722 10723 10724 10725 10727 10728 10730 10732 10733 10735 10737 10738 10739 10740 10741 10743 10745 10747 10749 10751 10752 10753 10755 10756 10757 10758 10760 10761 10762 10764 10765 10766 10767 10768 10769 10770 10770 10771 10771 10771 10772 10772 10773 10774 10774 10775 10776 10777 10777 10778
10665 10666 10668 10671 10673 10675 10676 10677 10679 10682 10684 10686 10687 10687 10689 10690 10691 10692 10693 10693 10694 10697 10699 10701 10703 10704 10705 10707 10708 10710 10711 10713 10715 10716 10718 10719 10720 10721 10723 10724 10725 10727 10728 10730 10732 10733 10735 10736 10737 10738 10740 10742 10744 10745 10747 10748 10750 10751 10752 10753 10755 10756 10758 10759 10761 10762 10763 10764 10765 10765 10766 10767 10768 10768 10768 10769 10769 10769 10770 10771 10772 10773 10773 10774 10775
10660 10660 10662 10665 10668 10669 10670 10672 10675 10678 10680 10682 10683 10684 10686 10687 10688 10689 10691 10691 10692 10694 10696 10697 10700 10701 10702 10704 10705 10707 10708 10710 10712 10713 10715 10717 10717 10719 10720 10721 10722 10724 10726 10727 10728 10730 10731 10732 10734 10735 10737 10738 10740 10742 10743 10745 10746 10747 10749 10750 10751 10753 10754 10756 10757 10758 10759 10760 10761 10762 10763 10764 10764 10765 10765 10765 10766 10766 10767 10767 10768 10769 10770 10771 10771
10655 10655 10656 10659 10662 10664 10665 10667 10670 10672 10675 10678 10680 10681 10682 10684 10686 10687 10688 10689 10690 10691 10693 10694 10696 10698 10700 10701 10703 10704 10706 10707 10709 10710 10712 10714 10715 10716 10717 10718 10720 10721 10723 10724 10726 10727 10728 10729 10731 10732 10733 10735 10736 10738 10739 10741 10742 10743 10745 10746 10747 10749 10750 10752 10753 10754 10756 10757 10758 10758 10759 10760 10760 10761 10761 10762 10763 10763 10763 10764 10765 10766 10766 10767 10767
10650 10650 10651 10653 10656 10658 10660 10662 10664 10667 10670 10672 10675 10677 10679 10681 10683 10685 10685 10686 10687 10689 10690 10692 10693 10695 10697 10699 10700 10702 10704 10705 10706 10707 10709 10711 10712 10714 10715 10716 10717 10719 10721 10722 10723 10724 10725 10726 10727 10728 10730 10731 10732 10734 10735 10737 10738 10739 10741 10742 10743 10745 10746 10748 10749 10750 10752 10753 10754 10755 10755 10755 10756 10757 10758 10759 10759 10760 10760 10761 10761 10762 10762 10763 10764
10645 10646 10647 10648 10651 10653 10655 10657 10659 10662 10664 10667 10671 10673 10675 10678 10680 10681 10682 10683 10685 10686 10688 10689 10689 10691 10694 10696 10697 10699 10701 10702 10703 10704 10706 10708 10709 10711 10713 10714 10715 10716 10718 10719 10720 10721 10722 10723 10724 10725 10726 10727 10728 10730 10731 10732 10733 10735 10736 10738 10739 10740 10742 10743 10744 10746 10747 10748 10750 10751 10751 10751 10752 10753 10754 10755 10756 10757 10757 10758 10758 10758 10759 10759 10759
10640 10642 10643 10644 10646 10648 10650 10652 10654 10657 10659 10662 10665 10667 10670 10673 10675 10676 10680 10682 10683 10683 10684 10685 10687 10689 10690 10692 10694 10696 10697 10698 10700 10701 10703 10705 10706 10708 10710 10711 10711 10713 10715 10717 10718 10718 10719 10720 10720 10721 10722 10723 10724 10725 10727 10728 10729 10730 10732 10733 10734 10736 10737 10739 10740 10741 10743 10744 10746 10747 10747 10747 10748 10749 10751 10752 10752 10753 10754 10754 10755 10755 10755 10755 10755
10636 10638 10639 10640 10641 10643 10645 10647 10649 10651 10654 10657 10659 10661 10664 10667 10669 10672 10677 10679 10679 10679 10679 10680 10683 10685 10686 10688 10690 10692 10693 10694 10696 10698 10700 10701 10702 10704 10706 10708 10709 10711 10712 10713 10715 10716 10716 10717 10717 10717 10718 10719 10720 10721 10723 10724 10725 10726 10728 10729 10730 10732 10733 10735 10736 10738 10739 10741 10742 10743 10744 10744 10744 10746 10747 10748 10748 10749 10750 10750 10751 10751 10751 10751 10751
10632 10633 10634 10636 10637 10639 10640 10642 10644 10646 10649 10652 10654 10657 10659 10661 10664 10668 10671 10673 10674 10675 10675 10676 10678 10679 10681 10684 10686 10687 10689 10690 10692 10694 10696 10698 10699 10700 10703 10705 10707 10708 10710 10711 10712 10713 10713 10714 10714 10715 10715 10716 10717 10718 10719 10720 10721 10723 10724 10726 10727 10728 10730 10731 10733 10734 10735 10736 10738 10739 10740 10740 10740 10742 10743 10744 10744 10745 10746 10746 10747 10748 10748 10748 10748
10628 10629 10630 10632 10633 10635 10636 10638 10639 10641 10644 10647 10650 10652 10654 10656 10659 10662 10666 10668 10669 10670 10672 10673 10673 10675 10677 10679 10681 10683 10684 10686 10688 10690 10692 10694 10696 10697 10699 10700 10702 10704 10706 10708 10709 10709 10710 10711 10712 10712 10712 10713 10713 10714 10715 10716 10718 10719 10721 10722 10724 10725 10726 10727 10729 10730 10731 10732 10733 10734 10735 10736 10736 10737 10738 10739 10740 10741 10742 10742 10743 10744 10744 10744 10744
10623 10624 10626 10627 10629 10631 10632 10633 10635 10636 10639 10642 10644 10647 10649 10651 10654 10657 10660 10662 10663 10666 10668 10668 10669 10670 10673 10675 10676 10678 10680 10681 10684 10686 10688 10691 10692 10693 10695 10696 10698 10699 10701 10703 10705 10706 10707 10708 10709 10709 10709 10710 10711 10711 10712 10713 10714 10715 10717 10718 10720 10721 10723 10724 10725 10726 10727 10728 10728 10729 10730 10731 10732 10733 10734 10735 10736 10737 10738 10739 10739 10740 10741 10741 10741
10619 10620 10622 10623 10625 10626 10628 10629 10630 10632 10634 10636 10639 10641 10644 10646 10649 10651 10654 10656 10658 10661 10663 10664 10664 10666 10668 10670 10672 10674 10675 10677 10680 10682 10684 10686 10687 10689 10691 10692 10693 10695 10696 10698 10700 10702 10703 10704 10706 10706 10707 10708 10708 10708 10709 10709 10710 10711 10713 10714 10716 10717 10719 10720 10721 10722 10723 10723 10724 10725 10725 10727 10728 10729 10730 10731 10732 10733 10734 10735 10736 10737 10737 10738 10738
10615 10616 10618 10619 10621 10622 10623 10625 10626 10627 10629 10632 10634 10636 10639 10641 10644 10646 10649 10651 10653 10656 10658 10660 10660 10661 10663 10666 10667 10668 10669 10672 10675 10678 10680 10682 10682 10685 10687 10686 10687 10690 10691 10693 10695 10697 10698 10700 10701 10702 10703 10705 10705 10706 10706 10707 10707 10708 10709 10710 10711 10713 10714 10715 10716 10718 10719 10719 10720 10720 10721 10722 10723 10725 10726 10727 10728 10729 10730 10731 10732 10732 10733 10734 10734
10611 10613 10614 10615 10617 10618 10619 10620 10622 10623 10625 10627 10629 10631 10634 10636 10639 10641 10643 10646 10648 10651 10654 10655 10656 10657 10659 10661 10662 10664 10665 10667 10669 10672 10675 10677 10678 10681 10683 10681 10682 10685 10687 10688 10690 10692 10693 10695 10696 10697 10699 10701 10702 10702 10703 10704 10704 10704 10705 10706 10706 10707 10708 10709 10711 10712 10714 10715 10716 10717 10717 10718 10719 10720 10721 10723 10724 10725 10726 10727 10728 10728 10729 10730 10730
10607 10609 10610 10611 10613 10614 10615 10616 10618 10619 10621 10623 10625 10627 10629 10631 10634 10636 10638 10641 10643 10646 10648 10651 10652 10653 10655 10656 10658 10659 10661 10663 10665 10667 10669 10671 10674 10676 10678 10677 10678 10680 10681 10682 10684 10685 10687 10689 10691 10692 10694 10695 10697 10698 10700 10700 10701 10701 10701 10702 10702 10703 10704 10705 10706 10707 10709 10710 10711 10712 10713 10714 10714 10715 10716 10718 10720 10721 10722 10722 10723 10724 10724 10725 10726
10603 10605 10606 10607 10609 10610 10611 10612 10614 10615 10617 10619 10621 10623 10625 10626 10629 10631 10633 10635 10638 10640 10643 10646 10648 10649 10650 10652 10653 10655 10657 10659 10661 10662 10665 10667 10669 10671 10672 10672 10672 10674 10675 10677 10678 10679 10681 10683 10684 10686 10688 10689 10691 10693 10694 10695 10696 10696 10697 10698 10699 10699 10700 10701 10702 10703 10704 10706 10707 10707 10708 10709 10710 10711 10712 10713 10714 10716 10717 10718 10718 10719 10719 10720 10721
10599 10600 10602 10603 10604 10606 10607 10608 10609 10611 10613 10615 10616 10618 10620 10622 10624 10625 10628 10630 10632 10634 10637 10640 10642 10644 10646 10647 10649 10651 10653 10655 10656 10658 10660 10662 10664 10665 10667 10667 10668 10669 10670 10672 10673 10674 10676 10677 10679 10682 10683 10684 10686 10687 10689 10690 10691 10692 10693 10694 10695 10696 10696 10697 10698 10699 10700 10701 10702 10702 10703 10703 10704 10706 10707 10708 10709 10710 10711 10713 10713 10714 10715 10715 10716
10595 10596 10597 10599 10600 10601 10602 10603 10605 10606 10608 10610 10612 10613 10615 10617 10618 10620 10622 10624 10626 10628 10631 10634 10636 10639 10640 10642 10644 10646 10648 10650 10651 10653 10655 10656 10658 10660 10661 10663 10664 10665 10666 10667 10668 10670 10671 10673 10675 10678 10679 10680 10682 10683 10685 10686 10687 10688 10689 10690 10691 10692 10693 10693 10694 10695 10696 10696 10697 10697 10698 10699 10699 10701 10702 10703 10704 10705 10706 10707 10708 10710 10710 10711 10711
10591 10592 10593 10594 10595 10597 10598 10599 10600 10601 10603 10605 10606 10608 10610 10611 10613 10615 10616 10618 10620 10622 10624 10627 10629 10632 10635 10637 10638 10641 10643 10645 10646 10648 10649 10651 10653 10654 10655 10657 10659 10660 10661 10662 10663 10665 10667 10668 10670 10672 10673 10676 10678 10679 10680 10680 10681 10683 10684 10685 10686 10687 10688 10689 10690 10690 10691 10691 10692 10693 10694 10694 10694 10695 10697 10698 10699 10699 10701 10701 10702 10704 10705 10706 10707
10586 10587 10588 10589 10591 10592 10593 10594 10595 10596 10598 10599 10601 10602 10604 10605 10607 10609 10610 10612 10614 10616 10618 10621 10623 10625 10628 10630 10633 10635 10637 10639 10641 10643 10644 10646 10647 10648 10650 10651 10652 10654 10655 10657 10658 10660 10661 10662 10664 10666 10668 10670 10672 10674 10674 10674 10676 10679 10679 10680 10681 10682 10684 10685 10685 10685 10686 10686 10687 10689 10690 10690 10690 10691 10692 10694 10694 10695 10696 10696 10697 10698 10699 10700 10701
10581 10583 10584 10584 10585 10587 10588 10589 10590 10591 10592 10594 10595 10596 10598 10599 10601 10603 10605 10606 10608 10610 10612 10614 10617 10619 10621 10623 10626 10628 10631 10633 10635 10637 10639 10641 10642 10643 10644 10645 10646 10648 10649 10651 10652 10653 10655 10657 10658 10659 10662 10664 10665 10667 10667 10669 10672 10674 10673 10674 10676 10677 10679 10680 10680 10680 10680 10681 10683 10684 10685 10686 10686 10686 10687 10689 10689 10690 10690 10691 10692 10693 10693 10694 10695
10576 10577 10578 10579 10580 10581 10582 10583 10585 10586 10587 10588 10589 10590 10592 10593 10595 10597 10598 10600 10602 10604 10605 10607 10610 10612 10615 10616 10619 10622 10624 10626 10629 10631 10632 10634 10636 10638 10639 10639 10640 10641 10643 10644 10646 10647 10649 10651 10652 10653 10655 10656 10657 10660 10661 10663 10667 10667 10666 10669 10670 10672 10674 10674 10674 10675 10675 10676 10679 10680 10680 10681 10681 10681 10682 10683 10684 10685 10685 10686 10687 10687 10688 10688 10688
10570 10571 10572 10573 10574 10575 10576 10578 10579 10581 10582 10583 10583 10584 10586 10587 10589 10590 10592 10594 10596 10597 10599 10601 10603 10606 10608 10610 10611 10614 10617 10619 10622 10624 10626 10628 10629 10632 10633 10634 10634 10635 10636 10637 10639 10642 10643 10645 10647 10648 10649 10650 10651 10653 10654 10657 10660 10659 10660 10662 10663 10666 10668 10667 10668 10670 10670 10671 10673 10674 10675 10676 10676 10676 10677 10678 10679 10679 10680 10681 10682 10682 10682 10683 10683
10564 10565 10566 10567 10568 10569 10570 10572 10573 10574 10576 10576 10577 10578 10579 10581 10582 10583 10585 10587 10589 10590 10592 10594 10596 10599 10601 10603 10605 10606 10609 10612 10614 10617 10619 10621 10623 10624 10626 10628 10629 10629 10630 10631 10633 10636 10638 10639 10641 10642 10643 10643 10644 10646 10648 10651 10652 10651 10653 10656 10657 10659 10660 10660 10662 10664 10664 10665 10667 10669 10670 10670 10670 10671 10672 10673 10673 10674 10674 10675 10676 10677 10677 10678 10678
10557 10558 10559 10561 10562 10563 10564 10565 10566 10567 10569 10570 10571 10572 10573 10574 10576 10577 10578 10580 10581 10583 10585 10587 10590 10592 10594 10596 10598 10600 10601 10604 10607 10609 10612 10614 10616 10617 10619 10620 10622 10623 10624 10624 10626 10629 10631 10633 10635 10636 10637 10637 10638 10639 10641 10643 10644 10643 10646 10648 10649 10651 10652 10653 10655 10656 10657 10658 10660 10662 10664 10664 10664 10664 10665 10666 10668 10668 10669 10669 10670 10671 10672 10672 10673
10551 10552 10553 10554 10555 10556 10558 10559 10559 10560 10561 10562 10563 10564 10566 10567 10569 10571 10572 10574 10575 10577 10579 10581 10582 10584 10586 10588 10590 10592 10595 10597 10599 10601 10604 10606 10609 10610 10611 10613 10614 10615 10617 10617 10619 10622 10625 10626 10628 10630 10630 10630 10631 10633 10634 10636 10636 10636 10638 10641 10642 10643 10644 10646 10648 10649 10650 10651 10652 10654 10656 10657 10658 10658 10659 10660 10661 10662 10663 10664 10664 10665 10666 10667 10667
10544 10545 10546 10547 10548 10549 10550 10551 10552 10553 10554 10555 10556 10557 10558 10560 10562 10563 10565 10567 10569 10571 10572 10574 10576 10577 10579 10580 10582 10584 10587 10589 10591 10593 10596 10598 10600 10602 10604 10605 10606 10607 10608 10610 10611 10614 10617 10619 10620 10622 10624 10624 10625 10627 10628 10629 10629 10629 10631 10633 10635 10635 10637 10638 10640 10642 10644 10645 10646 10647 10648 10650 10651 10652 10653 10653 10654 10656 10657 10658 10658 10659 10660 10661 10661
10536 10537 10538 10539 10540 10541 10543 10544 10545 10546 10547 10548 10548 10549 10551 10552 10554 10555 10558 10560 10562 10564 10566 10568 10570 10571 10573 10574 10576 10577 10579 10581 10583 10585 10587 10589 10591 10593 10595 10596 10598 10598 10599 10601 10602 10604 10608 10611 10612 10614 10616 10616 10618 10620 10622 10622 10623 10624 10624 10626 10627 10628 10630 10631 10632 10634 10636 10637 10638 10640 10641 10642 10643 10645 10646 10647 10647 10649 10650 10651 10652 10653 10654 10654 10655
10528 10528 10530 10531 10532 10532 10534 10535 10537 10538 10539 10540 10540 10541 10543 10544 10546 10547 10550 10552 10554 10557 10559 10561 10563 10565 10567 10569 10570 10571 10573 10574 10576 10577 10579 10581 10583 10584 10586 10588 10589 10590 10591 10592 10593 10594 10597 10600 10603 10605 10607 10608 10609 10611 10614 10614 10615 10617 10618 10619 10621 10622 10623 10624 10624 10626 10628 10629 10629 10631 10634 10634 10635 10637 10639 10640 10641 10641 10642 10643 10644 10645 10646 10647 10648
10518 10519 10521 10522 10523 10524 10525 10527 10529 10530 10530 10531 10532 10533 10535 10536 10538 10539 10542 10544 10547 10549 10551 10553 10555 10557 10559 10561 10563 10564 10566 10567 10568 10569 10571 10572 10574 10575 10577 10579 10581 10582 10582 10583 10584 10585 10587 10589 10591 10594 10597 10598 10599 10601 10604 10605 10607 10609 10610 10611 10614 10616 10616 10616 10616 10617 10620 10621 10620 10622 10625 10626 10628 10630 10631 10633 10633 10634 10635 10635 10636 10637 10638 10640 10641
10509 10511 10512 10513 10514 10515 10517 10519 10520 10521 10521 10521 10522 10524 10526 10528 10530 10532 10534 10537 10539 10540 10542 10543 10545 10547 10549 10551 10553 10555 10557 10558 10560 10561 10563 10564 10565 10567 10568 10570 10572 10574 10575 10575 10576 10577 10578 10579 10580 10583 10586 10588 10589 10590 10592 10595 10597 10599 10601 10603 10606 10608 10609 10609 10610 10610 10611 10612 10612 10614 10616 10618 10620 10622 10623 10624 10625 10626 10627 10627 10628 10630 10631 10632 10633
10500 10501 10502 10504 10506 10507 10509 10511 10511 10511 10511 10511 10513 10515 10517 10519 10521 10524 10526 10528 10529 10530 10532 10534 10536 10538 10539 10542 10544 10546 10548 10549 10551 10553 10554 10556 10557 10558 10560 10562 10564 10566 10567 10567 10568 10569 10570 10570 10571 10572 10575 10577 10579 10579 10581 10585 10587 10588 10591 10594 10596 10599 10600 10601 10602 10603 10603 10603 10603 10605 10607 10610 10612 10613 10613 10615 10616 10617 10618 10619 10621 10622 10623 10624 10625
10490 10491 10492 10496 10498 10498 10500 10502 10502 10502 10502 10503 10505 10506 10508 10509 10511 10513 10514 10516 10518 10520 10522 10525 10526 10529 10531 10532 10534 10536 10538 10540 10541 10544 10546 10547 10549 10550 10552 10554 10556 10558 10559 10559 10560 10561 10561 10561 10563 10564 10565 10566 10568 10569 10569 10573 10577 10578 10580 10584 10586 10588 10590 10592 10593 10593 10594 10595 10596 10597 10598 10601 10602 10603 10603 10605 10606 10607 10608 10610 10613 10614 10615 10616 10616
10480 10481 10484 10487 10487 10488 10490 10492 10493 10493 10494 10495 10495 10494 10495 10497 10499 10501 10503 10505 10508 10511 10513 10515 10517 10519 10521 10523 10525 10526 10528 10529 10531 10534 10536 10538 10540 10541 10543 10545 10547 10549 10550 10551 10551 10552 10552 10553 10554 10555 10556 10557 10558 10558 10559 10562 10566 10568 10570 10573 10575 10576 10578 10581 10582 10582 10584 10585 10587 10588 10590 10591 10592 10592 10593 10594 10595 10597 10599 10601 10603 10605 10606 10607 10609
10469 10471 10473 10476 10477 10479 10482 10483 10482 10482 10483 10484 10483 10482 10484 10487 10490 10493 10495 10497 10499 10502 10504 10506 10507 10510 10512 10513 10515 10516 10517 10519 10521 10523 10525 10527 10529 10531 10533 10535 10538 10540 10541 10542 10543 10543 10544 10545 10545 10545 10547 10548 10547 10547 10548 10551 10555 10557 10559 10562 10564 10565 10566 10568 10569 10570 10572 10574 10576 10578 10580 10581 10581 10582 10583 10583 10585 10587 10589 10591 10593 10594 10596 10598 10601
10460 10462 10463 10464 10466 10469 10471 10470 10469 10470 10472 10473 10472 10473 10475 10479 10482 10484 10486 10488 10490 10492 10494 10495 10497 10499 10501 10503 10505 10506 10507 10508 10510 10513 10514 10516 10519 10521 10522 10524 10527 10529 10531 10532 10533 10534 10535 10536 10536 10535 10537 10538 10537 10536 10538 10540 10544 10547 10549 10550 10553 10554 10554 10556 10557 10558 10559 10562 10565 10567 10568 10569 10569 10571 10573 10574 10575 10576 10577 10580 10581 10583 10586 10589 10591
10450 10452 10453 10453 10454 10456 10458 10458 10458 10460 10462 10462 10463 10464 10466 10468 10470 10473 10475 10477 10480 10482 10484 10485 10487 10489 10490 10492 10494 10495 10496 10498 10500 10503 10504 10506 10509 10511 10512 10514 10516 10518 10520 10521 10522 10524 10525 10526 10526 10526 10527 10527 10526 10526 10527 10529 10532 10536 10538 10539 10541 10542 10542 10544 10545 10546 10546 10548 10553 10556 10556 10555 10556 10560 10563 10564 10564 10565 10566 10568 10570 10572 10575 10578 10581
10439 10442 10442 10442 10443 10444 10446 10447 10448 10451 10453 10453 10454 10455 10456 10457 10458 10460 10464 10467 10468 10471 10473 10474 10476 10477 10479 10480 10482 10484 10486 10487 10489 10491 10493 10496 10498 10500 10502 10504 10505 10507 10509 10511 10512 10513 10514 10516 10517 10517 10517 10517 10517 10517 10517 10517 10519 10522 10526 10529 10530 10530 10531 10533 10534 10534 10533 10534 10538 10542 10543 10543 10544 10548 10552 10552 10552 10554 10557 10558 10559 10562 10565 10567 10570
10428 10430 10431 10432 10433 10433 10434 10436 10437 10440 10442 10444 10446 10447 10447 10446 10447 10449 10453 10455 10457 10459 10461 10463 10464 10466 10467 10468 10470 10473 10475 10476 10477 10479 10482 10485 10487 10489 10491 10493 10494 10496 10497 10500 10501 10502 10503 10505 10507 10507 10506 10506 10508 10508 10507 10507 10508 10509 10512 10515 10518 10519 10521 10522 10522 10522 10521 10520 10524 10528 10530 10530 10531 10535 10540 10540 10540 10543 10547 10548 10549 10552 10555 10557 10559
10416 10418 10419 10421 10422 10422 10423 10425 10427 10430 10432 10434 10436 10437 10437 10436 10436 10438 10441 10443 10444 10446 10448 10450 10452 10454 10455 10456 10458 10461 10462 10464 10466 10467 10470 10473 10476 10478 10479 10481 10483 10484 10486 10488 10489 10490 10491 10493 10495 10497 10495 10495 10497 10498 10496 10497 10498 10498 10499 10501 10504 10506 10509 10511 10512 10512 10509 10507 10508 10514 10520 10519 10515 10520 10528 10529 10527 10530 10535 10539 10540 10541 10544 10546 10548
10405 10407 10408 10410 10411 10411 10412 10414 10416 10420 10422 10424 10426 10426 10425 10426 10426 10427 10429 10430 10431 10432 10434 10437 10439 10441 10442 10444 10446 10449 10451 10452 10454 10456 10458 10460 10463 10465 10467 10469 10471 10472 10474 10475 10476 10477 10478 10480 10483 10485 10485 10484 10485 10486 10486 10486 10487 10487 10487 10488 10490 10492 10495 10498 10500 10500 10499 10497 10494 10499 10508 10509 10502 10505 10513 10515 10514 10516 10522 10530 10532 10529 10532 10536 10538
10394 10395 10397 10399 10400 10400 10401 10403 10406 10409 10411 10414 10415 10415 10415 10415 10415 10416 10417 10417 10417 10419 10421 10422 10424 10426 10428 10430 10433 10435 10438 10440 10441 10444 10445 10447 10450 10453 10455 10457 10458 10459 10461 10462 10462 10463 10465 10468 10471 10473 10473 10473 10472 10473 10474 10474 10475 10475 10475 10477 10478 10478 10481 10484 10486 10488 10489 10487 10484 10484 10492 10497 10494 10492 10496 10499 10501 10504 10510 10518 10521 10517 10519 10526 10528
10382 10384 10385 10387 10388 10388 10389 10393 10396 10398 10400 10402 10403 10403 10404 10405 10404 10404 10404 10404 10405 10406 10408 10409 10411 10412 10414 10417 10418 10421 10424 10426 10428 10430 10432 10434 10437 10440 10442 10444 10445 10447 10447 10447 10447 10449 10452 10456 10458 10459 10460 10460 10460 10461 10460 10460 10461 10461 10463 10466 10465 10463 10467 10472 10474 10475 10475 10475 10474 10473 10476 10482 10482 10479 10480 10482 10486 10492 10497 10504 10509 10507 10506 10512 10517
10371 10372 10373 10375 10376 10376 10378 10382 10385 10387 10389 10390 10391 10391 10392 10392 10391 10391 10392 10392 10393 10395 10396 10397 10399 10400 10402 10403 10404 10406 10409 10411 10413 10416 10418 10421 10423 10425 10427 10429 10431 10432 10432 10431 10433 10436 10440 10442 10443 10444 10445 10446 10446 10447 10447 10447 10447 10446 10449 10453 10450 10448 10454 10459 10459 10461 10462 10463 10462 10459 10460 10466 10467 10464 10466 10467 10470 10478 10483 10489 10497 10497 10492 10497 10504
10359 10361 10362 10362 10364 10365 10368 10370 10373 10375 10377 10378 10379 10380 10380 10380 10379 10379 10380 10381 10382 10384 10385 10387 10388 10389 10390 10390 10391 10392 10394 10396 10398 10401 10404 10406 10408 10410 10411 10413 10416 10416 10415 10416 10419 10423 10426 10427 10428 10429 10430 10431 10431 10432 10432 10432 10431 10430 10433 10437 10436 10434 10439 10443 10444 10446 10450 10451 10447 10442 10443 10449 10450 10449 10449 10451 10456 10463 10467 10473 10484 10484 10478 10481 10490